Tracking 29892 objects as of 21-Nov-2024
HD Live streaming from Space Station
objects crossing your sky now

STARLINK-30117

Track STARLINK-30117 now!
10-day predictions
STARLINK-30117 is classified as:


NORAD ID: 56702
Int'l Code: 2023-067Q
Perigee: 565.6 km
Apogee: 566.9 km
Inclination: 43.0 °
Period: 95.8 minutes
Semi major axis: 6937 km
RCS: Unknown
Launch date: May 19, 2023
Source: United States (US)
Launch site: AIR FORCE EASTERN TEST RANGE (AFETR)
Your satellite tracking list
Your tracking list is empty




NASA's NSSDC Master Catalog

Two Line Element Set (TLE):
1 56702U 23067Q   24326.03188180 -.00000230  00000-0 -19326-5 0  9997
2 56702  43.0025 328.6362 0000954 268.1403  91.9330 15.02536941 83550
Source of the keplerian elements: AFSPC